Wind_Speed
15 16 16 17 18 18 19 20 21 21 22 23 25 26 28 29 31 32 34 36 38 39 42 43 45 47 48 49 51 52 52 53 54 54 55 55 55 55 54 54 54 53 52 51 51 50 49 49 48 47 46 45 45 44 44 44 44 43 43 42 40 38 37 36 35 35 33 32 32 31 30 29 29 29 28 28 28 28 28 27 26 25 23 22 21 20 18 20
15 15 15 15 16 16 17 17 19 20 21 23 24 26 27 29 30 32 33 34 35 37 39 41 43 45 46 48 50 51 52 53 54 55 56 56 56 56 56 56 55 55 54 53 53 52 51 50 49 48 47 47 46 45 45 45 45 45 44 43 42 40 38 37 36 36 35 34 33 32 31 29 29 28 28 28 28 28 28 28 27 26 25 24 23 23 21 22
14 14 14 14 15 16 17 18 19 20 22 24 26 28 29 31 32 33 34 35 36 37 38 39 41 43 44 46 48 49 51 53 54 55 55 56 57 57 57 57 57 57 56 55 54 54 53 52 51 50 49 48 47 47 46 46 46 45 44 44 43 41 39 39 38 37 37 36 34 33 32 31 30 29 28 28 28 28 28 27 27 26 26 25 25 25 24 24
14 14 15 15 16 17 18 19 21 22 24 26 27 29 31 32 33 34 35 35 36 37 38 39 41 42 44 45 46 48 50 52 53 54 55 56 57 57 57 58 58 58 58 57 56 55 54 53 53 52 51 50 49 48 48 47 47 46 46 45 43 42 41 40 40 39 39 38 36 35 34 33 32 31 29 29 29 28 28 27 26 26 25 25 25 25 24 24
16 16 16 17 18 19 20 21 22 24 26 28 29 30 31 32 32 33 34 34 35 36 38 39 40 42 44 45 47 48 50 52 53 54 55 56 57 57 57 58 58 59 59 59 58 57 56 55 54 53 52 52 51 50 49 49 48 47 47 46 44 43 42 41 40 40 40 39 38 37 35 35 34 33 32 30 29 28 27 27 26 24 24 25 24 24 24 23
17 17 17 18 19 20 21 23 24 26 28 29 30 31 31 31 31 31 31 32 33 34 36 38 39 41 43 45 47 49 50 53 54 54 55 56 57 57 57 58 58 59 59 59 59 59 58 56 55 54 53 53 52 52 51 50 49 49 48 47 46 45 43 42 42 41 41 40 39 38 36 35 35 34 33 31 29 28 27 27 25 24 24 24 24 25 25 24
17 18 18 19 20 22 23 25 26 29 30 31 31 31 30 28 28 27 28 29 30 31 33 35 37 38 41 43 45 47 49 51 53 54 55 56 57 57 58 58 59 59 59 59 59 59 58 58 57 55 54 53 53 53 52 52 51 50 49 48 46 45 44 44 43 42 41 41 40 39 37 36 36 34 33 32 31 30 28 27 26 26 27 27 26 27 28 28
19 20 21 22 23 25 26 27 29 31 32 32 30 29 27 25 25 25 26 27 28 30 31 32 33 35 37 38 41 43 46 48 50 52 54 56 57 58 58 59 59 60 60 60 59 59 58 58 58 57 55 54 53 53 53 53 52 52 50 49 47 46 45 44 44 43 43 42 41 40 39 37 36 35 34 33 33 33 31 29 28 29 30 30 29 29 30 30
22 23 24 25 26 27 28 29 31 33 33 30 27 25 24 23 24 25 25 26 26 27 28 29 30 31 32 33 35 38 40 43 45 48 51 53 55 57 59 59 60 60 60 60 60 60 59 58 58 58 57 55 54 53 52 52 53 52 52 50 49 47 46 45 45 44 44 43 42 41 40 39 37 37 35 34 35 36 34 33 31 31 31 31 31 31 30 30
23 25 26 27 29 30 31 32 34 34 32 28 25 24 24 23 23 23 23 23 23 24 24 24 24 24 24 25 27 28 31 35 38 41 45 48 51 54 56 59 60 61 60 60 60 60 60 59 58 57 57 57 55 54 52 52 52 51 51 51 50 49 47 46 45 45 44 44 43 42 41 40 39 37 36 36 37 37 35 34 33 32 32 31 32 32 31 30
24 26 28 29 31 32 32 33 35 33 30 27 25 24 23 22 21 21 20 20 19 19 18 17 17 16 15 15 16 17 20 24 28 32 36 40 44 47 51 54 57 60 61 60 60 60 60 60 59 58 57 57 56 55 53 52 51 50 50 50 50 50 49 48 47 46 45 44 44 43 43 42 40 39 38 37 37 38 37 35 34 34 32 31 31 32 31 30
26 28 29 30 32 32 33 35 34 31 28 26 23 22 21 20 19 19 18 17 16 15 13 13 13 14 12 11 11 11 12 15 17 20 25 29 34 38 43 47 52 56 59 60 60 60 59 60 59 58 58 57 56 56 55 53 51 50 49 48 49 49 49 49 48 47 46 45 45 44 44 44 43 41 40 39 38 38 38 37 36 35 33 32 33 33 32 31
27 29 31 32 34 34 35 37 34 30 27 24 22 22 22 22 22 21 19 17 15 13 12 12 12 13 12 12 11 10 11 13 14 14 16 19 23 28 33 39 44 49 53 57 60 60 60 59 59 58 58 57 56 55 55 55 53 51 49 48 48 48 49 49 48 47 47 46 46 45 45 45 44 43 41 40 39 38 38 38 37 35 34 34 34 34 33 31
29 30 32 34 36 36 38 38 34 29 25 23 24 24 24 25 26 26 24 22 19 17 14 13 12 11 10 9 8 8 10 12 14 14 13 14 16 19 24 29 35 41 46 51 56 59 60 59 58 57 57 57 56 55 55 55 55 53 51 50 49 48 48 48 48 47 47 47 46 46 45 44 43 42 41 40 39 39 38 37 37 36 36 36 34 34 33 31
30 32 34 36 37 38 39 39 33 28 25 24 25 25 26 26 27 27 25 24 21 19 17 15 13 12 11 9 7 8 8 9 11 14 14 15 15 15 17 21 26 33 39 44 49 55 58 59 58 57 56 56 56 56 56 55 55 54 53 52 51 49 48 47 46 46 46 46 46 45 45 44 43 42 41 41 40 39 39 38 37 36 36 37 36 35 34 33
31 33 35 36 38 39 41 40 34 28 24 23 24 25 25 26 26 26 25 24 22 20 18 16 14 13 12 10 8 8 8 8 7 6 9 11 13 14 14 15 19 25 31 37 42 48 53 57 58 57 56 56 56 57 56 56 55 55 54 53 51 50 49 47 45 45 44 45 44 44 44 43 43 42 41 40 39 39 38 37 37 36 36 37 35 34 35 34
32 34 35 37 39 40 41 42 36 30 25 23 23 23 24 25 26 25 25 24 23 22 19 18 15 13 12 10 9 9 9 9 7 7 7 7 7 10 12 13 13 16 23 30 36 41 47 52 56 57 57 55 56 56 57 57 57 56 55 54 51 50 49 47 46 44 43 43 43 43 42 42 42 42 41 40 39 39 38 37 37 37 37 36 34 33 34 34
33 35 36 37 39 41 42 44 40 33 27 24 22 23 23 25 26 26 26 25 25 24 23 21 18 14 11 10 10 11 11 10 9 9 8 6 6 7 9 12 12 11 15 23 31 37 41 46 51 55 56 56 55 55 55 56 55 55 55 54 53 51 49 47 46 44 42 42 41 41 41 41 41 40 40 39 39 38 38 37 37 37 37 36 35 34 34 34
34 35 37 38 40 42 44 46 45 38 31 26 23 23 24 25 26 27 28 27 26 26 25 23 20 17 15 12 10 9 10 10 9 9 10 9 8 7 7 11 13 11 11 17 26 32 37 42 46 50 54 55 54 53 53 52 52 52 52 51 52 52 50 47 45 43 42 41 40 39 39 39 39 39 39 38 38 37 37 37 36 36 36 35 35 34 34 34
34 36 37 39 41 43 44 46 48 44 36 30 25 23 23 24 26 28 29 29 28 28 27 25 21 20 19 18 15 9 6 6 6 7 7 7 7 6 6 9 12 11 9 13 22 28 33 38 43 47 50 52 53 52 51 50 51 51 49 49 49 49 49 47 45 43 41 40 39 38 38 37 37 38 37 37 36 36 35 35 34 35 35 34 34 34 32 32
34 36 38 39 40 42 44 46 48 47 41 35 31 26 24 23 24 27 29 31 31 31 30 28 25 24 22 20 17 12 10 8 8 9 5 2 3 4 5 8 11 9 7 12 21 26 30 34 39 44 46 48 50 50 50 49 48 48 47 48 48 47 47 46 45 43 41 40 39 37 37 36 36 36 35 35 35 34 34 33 33 32 32 32 32 32 31 32
34 36 38 39 40 42 44 46 48 49 46 40 36 32 27 24 24 26 30 33 33 33 34 33 31 29 27 23 19 16 14 13 13 12 7 6 4 4 5 8 9 7 8 15 20 23 28 30 33 38 41 43 46 48 48 47 45 46 47 47 47 46 45 44 44 42 40 39 38 37 36 36 35 34 34 33 33 33 33 32 31 30 30 30 29 29 30 30
34 35 37 39 40 41 43 46 47 49 49 44 39 36 31 27 26 28 31 34 34 34 36 35 33 33 30 27 24 21 20 20 18 12 12 14 12 10 9 9 8 8 14 20 22 23 27 30 32 35 36 39 44 45 46 46 44 44 44 45 45 44 43 43 43 42 40 39 38 36 35 35 34 34 34 33 32 31 31 30 29 29 29 28 28 27 28 28
34 35 36 37 39 41 42 45 47 48 50 49 44 39 35 30 27 29 32 35 36 37 38 37 35 35 33 31 28 25 25 26 20 14 16 19 17 13 9 9 11 16 21 23 25 25 27 30 34 37 35 34 40 43 44 45 45 44 43 42 42 41 41 40 40 40 40 39 38 37 35 35 35 34 34 32 31 30 29 29 28 27 27 26 26 26 26 26
35 34 35 36 38 39 41 43 45 46 49 51 48 42 37 32 28 29 31 35 38 39 39 38 37 38 37 36 32 29 28 29 23 18 18 18 16 13 11 13 19 24 27 29 30 29 29 32 36 40 36 32 37 41 41 41 42 43 42 41 39 38 38 38 38 37 37 38 38 37 36 36 35 34 33 32 31 30 29 28 27 26 26 24 24 24 25 25
35 35 34 35 36 37 39 42 43 44 46 49 49 44 37 32 28 25 27 33 38 38 40 39 38 40 41 40 37 34 31 31 27 23 19 17 15 14 17 22 27 30 32 34 34 32 33 34 36 39 36 32 36 38 37 36 38 40 40 39 38 36 35 35 36 36 35 35 36 35 35 35 34 33 32 30 30 29 29 28 26 25 24 23 23 24 24 23
34 35 35 35 35 36 37 40 42 43 44 47 49 46 40 33 28 24 23 30 36 39 42 42 40 41 41 42 41 40 38 36 33 29 23 20 20 21 23 28 31 34 35 36 37 36 36 35 36 38 34 31 36 38 34 30 33 37 38 38 37 34 33 33 33 34 33 33 33 34 33 33 32 31 31 30 29 28 27 25 24 24 23 23 24 24 23 23
34 35 36 35 35 36 36 38 41 41 42 45 49 49 45 39 33 28 25 30 36 39 42 44 44 44 43 41 39 42 45 44 41 38 34 29 28 27 29 32 35 37 37 38 42 43 41 38 36 34 30 32 38 40 32 25 29 35 37 36 35 32 30 31 31 32 32 32 33 32 31 31 30 29 28 27 27 25 25 25 25 25 25 25 25 25 24 24
33 34 35 36 35 36 36 37 40 40 40 43 48 49 49 46 41 35 33 35 37 39 42 44 45 46 46 43 39 40 43 44 45 46 45 42 38 35 37 39 39 41 43 42 45 47 43 38 36 31 31 37 42 39 30 25 28 33 34 34 32 29 27 30 31 31 31 31 32 30 29 29 29 27 25 25 25 24 25 26 26 26 26 26 25 25 25 25
32 33 35 36 36 36 36 37 39 40 38 41 46 49 50 49 47 46 46 43 39 39 42 43 44 47 48 46 44 42 41 42 44 45 45 46 44 41 43 46 44 45 46 43 43 44 40 37 35 32 36 40 41 37 32 30 30 30 33 33 32 30 28 30 31 30 30 30 30 29 29 29 27 26 26 25 25 25 25 24 24 24 24 25 25 24 24 25
31 32 34 35 36 36 36 37 39 40 37 38 44 47 49 50 51 54 54 49 44 40 41 42 43 45 46 46 49 48 46 46 45 44 44 45 44 41 42 44 43 44 43 40 40 39 38 36 33 33 39 41 39 37 35 35 33 30 31 32 31 30 29 29 30 30 30 29 28 28 27 27 26 25 25 24 23 23 22 22 22 22 23 23 23 23 24 25
29 30 32 33 35 36 37 37 39 41 37 36 42 46 47 50 55 59 57 53 48 42 40 42 43 43 43 45 49 50 50 51 49 47 47 47 45 42 42 41 39 39 40 39 39 37 37 35 33 35 39 39 37 36 35 36 35 32 30 30 29 28 28 28 28 28 27 25 25 24 23 23 23 23 22 21 22 21 21 21 22 22 22 23 24 25 26 27
28 29 30 32 33 34 36 36 38 41 38 35 40 44 45 51 57 60 58 55 51 45 42 42 42 42 43 43 46 47 48 51 50 49 48 46 44 43 44 43 41 41 42 42 41 40 39 36 34 35 36 36 35 33 35 36 36 33 28 26 23 22 23 23 23 23 23 21 21 21 21 20 20 21 20 20 20 21 21 21 22 22 23 24 25 26 27 28
26 27 28 30 32 32 35 36 37 40 38 34 38 43 46 53 57 57 57 56 54 51 47 44 42 41 41 41 44 45 45 47 48 47 46 44 43 43 43 41 40 40 42 43 42 42 42 39 36 36 37 37 35 32 32 32 31 29 25 24 21 17 17 18 18 18 18 17 17 17 18 17 17 17 18 19 19 20 20 20 21 22 23 23 24 25 26 26
24 26 26 28 30 31 33 35 36 38 37 33 37 43 47 53 55 53 55 55 55 55 52 50 46 43 41 40 41 41 42 44 44 43 42 42 43 44 44 43 41 39 39 40 42 43 44 43 40 39 39 39 36 32 31 30 29 26 24 24 22 18 17 16 15 15 15 15 15 15 15 15 16 16 16 17 18 18 18 19 19 20 20 21 22 22 23 23
22 24 25 26 29 30 31 34 35 38 38 32 34 44 49 50 51 51 53 53 53 54 54 54 52 49 47 44 41 39 39 39 38 38 39 41 43 43 43 44 43 42 40 40 42 43 46 47 44 42 41 39 36 33 30 30 29 26 24 23 22 20 19 18 17 16 17 16 15 15 14 14 14 14 14 15 15 15 15 16 16 16 17 17 18 19 19 19
21 22 24 25 27 29 30 33 35 38 37 30 33 44 48 47 48 48 49 50 51 52 52 53 53 53 53 50 48 44 42 40 37 36 37 40 42 42 41 41 40 40 39 39 40 41 43 46 45 42 41 39 36 35 32 30 29 27 25 23 22 21 19 18 17 16 15 15 13 12 11 11 11 11 11 12 12 13 13 13 14 14 14 14 14 14 14 13
20 21 23 24 25 27 29 30 33 36 34 30 35 43 45 45 46 46 46 47 48 49 49 50 51 52 52 52 52 50 48 47 45 43 43 44 43 41 39 39 38 37 36 35 37 37 37 41 42 39 38 36 34 33 31 29 27 25 24 21 19 18 15 14 13 12 12 10 9 9 8 8 8 8 8 8 9 9 10 10 10 9 8 7 6 6 5 5
20 21 22 23 24 25 27 27 31 34 31 30 36 41 42 43 44 44 44 44 44 46 47 48 49 49 49 49 51 51 51 51 50 50 51 51 50 47 44 43 41 40 38 36 37 35 33 36 38 36 33 32 30 28 26 24 22 21 20 18 16 15 13 13 13 12 12 11 10 10 10 10 10 9 9 8 8 7 5 4 3 3 3 2 1 0 1 3
19 20 21 22 23 24 24 26 30 31 28 29 35 38 40 41 42 42 43 42 43 44 44 45 46 46 47 47 47 47 48 49 49 50 51 52 52 51 50 49 48 46 45 43 42 40 37 37 39 38 35 33 31 29 27 25 24 23 22 21 20 19 18 18 18 18 17 17 16 16 16 16 15 15 14 13 12 11 10 9 8 7 5 4 2 1 2 3
17 19 20 21 22 23 23 25 27 27 26 29 33 34 36 38 39 40 41 41 42 42 42 43 43 44 44 44 44 45 45 46 46 47 48 49 49 50 49 49 49 49 48 47 46 45 43 42 42 42 40 39 37 36 34 32 31 30 29 28 27 26 25 24 24 22 21 21 19 19 19 18 17 16 15 14 13 11 10 8 7 5 4 2 0 1 2 4
15 16 18 19 21 22 23 24 24 24 25 28 29 31 33 35 36 38 39 40 41 41 41 41 41 41 42 42 42 42 43 44 44 44 45 45 45 46 46 45 45 45 44 44 44 43 42 42 42 42 41 40 39 37 36 35 34 33 32 30 29 28 26 25 24 23 21 20 19 18 18 17 16 14 12 11 10 9 8 7 5 4 4 4 4 5 6 7
14 15 15 17 19 20 21 23 22 23 24 25 27 28 30 31 33 34 36 37 38 39 40 40 40 40 40 40 40 40 41 42 42 42 43 43 43 42 42 42 41 41 40 40 39 38 38 38 37 37 37 36 35 34 33 32 31 30 29 27 26 25 24 22 21 20 19 18 17 16 15 15 13 12 11 10 10 9 8 7 7 7 7 7 8 8 9 10
12 13 14 15 16 17 19 20 21 22 23 23 24 25 26 28 29 30 32 33 35 36 37 38 38 39 39 39 39 38 39 40 40 41 40 41 41 40 40 39 39 38 37 37 37 36 36 35 33 32 33 33 32 31 29 28 28 26 25 25 24 23 22 20 20 19 18 18 17 16 15 14 14 13 12 12 11 10 9 9 9 8 8 8 8 8 9 11
11 12 12 13 14 15 16 18 18 20 20 21 22 23 24 25 26 27 28 29 31 32 33 34 35 36 37 37 37 37 37 37 38 38 38 38 39 38 38 37 37 36 35 35 35 34 34 33 32 31 31 31 30 29 28 27 27 26 25 24 23 23 22 21 20 19 18 18 17 16 15 15 14 13 12 11 11 10 9 8 7 7 7 7 7 8 10 11
9 10 11 12 13 14 15 15 16 17 18 19 20 21 21 22 23 24 25 25 27 28 29 30 31 32 33 33 34 34 35 35 35 35 35 36 36 36 36 35 35 34 34 33 33 32 32 31 31 30 29 29 29 28 27 27 26 25 24 24 23 22 21 20 19 18 17 16 16 14 13 13 12 11 10 8 8 7 6 6 6 6 6 7 8 9 11 13
8 9 10 11 12 13 13 14 14 15 16 17 18 18 19 20 20 21 22 22 23 24 25 26 27 28 29 30 30 31 31 32 32 32 32 32 33 33 33 32 32 32 31 31 31 30 29 29 28 28 27 27 26 26 25 24 24 23 22 21 20 19 18 17 16 15 14 14 13 12 11 10 9 8 7 6 5 4 4 4 5 5 6 8 9 11 12 14
6 7 8 9 10 11 12 13 13 14 14 15 16 16 17 18 18 19 19 19 20 21 21 22 23 24 25 26 26 27 28 28 28 28 28 29 29 29 29 29 29 29 28 28 28 27 26 26 25 25 24 24 23 22 22 21 21 20 19 18 17 16 15 14 13 12 11 10 9 8 7 6 5 4 3 3 3 3 4 4 6 7 8 9 11 12 14 16
6 7 7 8 9 10 11 11 12 13 13 13 14 14 15 16 16 17 17 17 18 18 18 18 19 20 21 22 22 23 24 24 25 25 25 25 25 25 25 25 25 25 24 24 24 24 23 23 22 21 21 20 20 19 18 18 17 16 16 15 14 13 12 11 10 9 8 7 7 6 5 4 3 3 4 4 5 5 5 6 8 9 11 12 13 15 16 18
7 7 7 8 9 10 10 11 11 11 12 12 13 13 13 14 14 15 15 15 16 16 16 16 16 16 17 18 19 20 21 21 21 22 22 22 22 22 22 21 21 21 20 20 20 20 19 19 18 18 17 17 16 16 15 14 13 13 12 11 11 10 9 8 8 6 5 5 4 3 3 3 4 5 6 7 8 9 8 8 10 12 13 15 16 17 18 20
7 7 7 8 8 9 10 11 11 11 11 11 11 12 12 12 12 13 13 14 14 14 14 14 14 14 14 14 15 16 16 17 17 18 18 18 19 18 18 18 17 17 16 17 16 16 15 15 14 14 13 13 13 12 11 11 10 9 9 8 7 7 6 6 5 4 3 2 2 2 3 4 6 7 8 9 10 11 9 10 12 13 14 15 17 18 20 22
9 8 7 8 8 8 9 10 11 11 11 11 11 11 11 11 11 11 12 12 12 12 12 13 13 13 12 12 12 13 13 13 14 14 15 15 15 15 15 15 14 14 14 13 13 12 12 11 11 10 10 9 9 8 7 7 6 6 5 4 4 4 4 3 3 2 2 2 2 3 4 5 7 8 9 10 11 11 11 11 13 15 16 17 19 20 22 24
Wind_Direction
324 321 319 317 314 312 309 306 303 301 298 295 292 289 286 283 280 276 273 270 268 266 264 262 260 259 257 256 254 252 251 249 247 246 244 243 242 242 241 240 240 240 239 238 237 236 236 236 235 235 234 233 232 232 232 231 231 231 232 232 232 231 230 231 233 235 236 237 237 238 238 238 238 238 238 237 236 236 235 234 233 233 233 231 233 235 231 237
337 334 331 328 325 321 317 313 310 307 305 302 300 297 294 291 288 284 280 277 273 270 267 264 262 260 258 257 255 253 252 250 248 247 245 243 242 241 240 239 239 239 238 237 236 235 235 234 234 234 233 233 232 231 231 230 230 231 231 232 231 230 229 229 231 232 234 234 235 236 237 238 238 238 238 238 238 238 238 237 236 236 235 235 236 238 238 241
349 345 342 338 334 330 324 319 315 311 308 305 303 300 297 295 292 288 285 282 278 275 271 268 265 263 260 258 256 254 252 251 249 247 245 244 243 241 240 239 238 237 237 236 236 235 234 233 233 232 232 232 231 231 230 230 230 231 230 230 230 229 227 227 228 230 231 233 233 233 235 236 237 237 237 237 237 236 237 238 239 239 237 237 239 240 240 244
356 351 346 341 337 332 326 321 317 313 309 306 303 300 297 295 291 288 285 281 278 275 272 269 266 264 262 260 257 255 253 251 249 247 246 244 243 242 240 239 238 236 235 235 234 234 233 233 232 231 231 230 230 230 230 229 229 229 229 230 229 228 226 226 227 228 230 231 231 230 232 234 236 236 236 236 236 236 237 238 239 239 239 240 243 242 241 246
357 352 347 342 338 334 329 324 320 316 313 310 307 303 300 296 292 288 284 280 276 273 269 267 264 262 260 259 257 255 254 252 250 248 246 245 243 242 240 239 237 236 235 233 233 232 232 232 231 230 230 229 229 229 229 229 229 229 229 229 228 226 225 225 226 227 228 230 230 229 229 231 234 235 235 235 236 237 238 239 239 240 241 243 242 241 242 245
357 352 347 343 340 337 333 329 325 321 318 315 312 308 304 300 295 291 287 283 279 275 271 267 264 261 259 257 255 254 253 251 250 248 246 245 243 241 240 239 237 236 235 233 232 231 230 230 230 229 229 228 227 228 228 228 228 228 228 228 227 226 225 223 224 225 227 228 229 229 229 230 232 234 237 237 236 237 237 237 237 241 245 243 240 239 241 242
359 355 350 347 345 342 338 334 330 327 324 320 316 312 307 303 299 295 292 289 286 283 279 274 270 265 262 258 255 253 251 250 250 248 247 245 243 241 239 238 237 236 234 233 232 230 229 229 228 228 227 227 226 226 226 226 226 227 227 227 227 226 225 223 222 223 225 227 229 229 229 229 231 232 235 238 239 237 236 236 234 236 242 242 239 239 242 245
3 360 357 355 352 349 344 340 336 332 328 325 321 316 312 308 304 300 298 295 292 288 284 280 276 272 268 264 260 256 253 251 249 248 246 245 243 241 239 238 236 235 233 232 231 230 229 228 227 226 226 225 225 225 225 225 225 225 226 226 226 225 224 224 223 222 222 224 226 229 228 228 229 230 230 234 239 240 238 237 234 231 235 239 238 239 243 247
6 3 2 359 357 354 350 345 340 335 332 330 327 322 317 314 308 304 301 297 293 290 286 283 280 277 273 269 265 261 258 254 251 248 246 245 243 241 240 238 236 234 233 231 230 230 229 228 227 226 225 224 224 224 224 224 224 224 224 224 224 224 223 223 222 222 221 222 223 226 228 228 228 229 229 229 232 237 238 236 235 233 234 237 239 240 243 245
8 6 4 3 0 357 352 347 342 339 338 337 333 326 322 317 312 308 304 300 297 294 291 288 284 280 277 273 269 266 262 258 254 251 248 246 244 242 240 238 236 234 233 231 230 229 228 227 226 225 224 224 223 223 223 223 223 223 223 223 223 223 223 222 222 222 222 222 222 224 226 228 228 228 229 229 229 232 235 235 235 234 235 238 242 243 243 244
10 8 7 5 2 359 354 349 346 345 344 342 338 333 330 327 322 318 314 311 308 305 303 300 297 293 289 286 282 276 270 264 259 255 251 248 245 243 241 239 237 234 232 231 229 228 227 226 225 224 223 222 222 221 221 221 222 222 222 222 222 221 221 221 220 220 221 221 222 223 225 227 228 227 228 229 230 231 233 235 236 236 237 238 242 245 244 246
12 11 9 8 5 1 357 354 352 352 351 351 351 350 349 348 345 340 336 332 329 327 322 317 312 305 301 301 301 297 289 280 271 263 257 251 247 244 241 239 237 235 232 230 228 227 226 225 224 223 222 222 221 220 220 219 220 220 220 220 220 220 220 220 219 219 219 220 221 222 225 226 228 228 228 229 230 232 233 235 236 239 240 238 240 244 246 249
14 13 12 10 8 4 1 359 358 358 1 7 12 15 16 18 18 15 10 5 1 357 348 338 329 319 310 302 302 306 304 298 291 280 270 261 252 246 242 239 236 234 232 230 227 225 224 224 223 222 221 220 220 219 219 218 218 218 217 217 218 219 219 219 219 219 219 219 220 221 224 227 229 230 230 230 231 232 234 235 237 238 240 240 240 244 248 250
16 15 14 13 10 7 5 4 3 4 12 23 28 32 34 33 32 30 29 29 27 23 17 8 360 353 342 326 314 312 309 302 292 279 271 268 262 253 246 240 235 232 231 229 227 224 223 222 221 220 219 219 218 218 218 217 217 216 216 215 215 216 218 219 218 218 218 219 220 221 223 225 229 232 233 233 233 233 234 236 238 237 239 241 242 245 248 251
18 17 16 15 12 11 9 8 8 10 19 31 36 37 37 33 30 28 28 30 30 29 26 22 17 18 17 9 353 338 329 315 289 269 262 261 262 261 253 243 236 231 228 227 225 223 221 220 219 218 217 216 216 216 215 216 216 216 215 215 214 213 215 217 218 218 217 218 219 220 222 224 226 229 232 234 235 235 236 237 238 239 240 242 245 248 251 252
20 19 18 17 15 14 13 12 13 15 21 33 38 36 34 30 26 24 24 24 23 21 18 14 10 11 13 8 354 338 331 332 323 299 287 272 262 260 257 247 236 230 226 223 222 221 220 218 216 216 215 214 214 214 214 214 214 214 215 216 216 215 213 213 215 217 217 217 218 220 221 224 225 227 229 232 234 236 237 238 239 240 242 244 246 249 252 253
21 20 19 19 17 16 16 16 17 20 22 28 35 36 33 29 25 23 23 23 21 18 14 9 4 0 358 351 336 324 317 323 334 328 317 303 278 263 256 249 238 230 224 219 217 217 217 215 214 213 213 212 213 213 212 212 212 212 213 214 215 216 216 214 213 214 215 216 217 218 220 222 224 226 228 229 232 235 237 239 241 242 244 246 247 249 252 255
22 21 21 21 20 19 19 19 20 23 23 24 26 29 30 28 25 24 25 24 22 19 15 11 6 1 355 342 323 316 313 313 311 299 294 301 296 275 256 245 238 233 225 216 212 211 211 211 211 211 211 210 210 211 211 212 213 214 214 214 213 214 216 216 214 213 213 215 216 217 219 221 223 225 227 229 231 233 236 238 241 244 246 249 250 252 254 257
23 23 22 22 22 21 21 21 21 23 24 24 24 23 24 24 24 25 26 26 24 21 17 14 10 5 3 357 344 324 308 308 310 300 289 286 284 273 254 239 233 233 229 215 207 205 204 205 206 207 208 208 208 209 210 211 212 213 215 215 215 215 214 215 216 215 214 214 216 217 218 220 222 224 226 228 231 233 236 239 242 244 247 250 252 254 256 258
25 24 24 23 23 23 24 23 23 23 23 24 25 23 23 22 23 24 26 28 26 22 19 17 14 10 9 8 10 10 345 332 341 334 306 281 268 258 249 231 221 224 226 207 199 198 198 199 200 202 204 206 207 207 207 207 208 210 212 214 215 216 216 214 214 215 215 215 215 217 219 220 222 224 226 228 230 233 236 239 241 244 247 250 253 255 257 258
26 25 25 25 25 25 26 25 25 24 24 24 25 24 23 23 24 25 28 30 26 25 27 29 30 28 25 22 23 30 27 18 12 7 355 289 260 244 230 207 200 207 207 191 186 188 190 192 195 197 198 201 204 205 205 205 206 206 208 211 213 215 216 216 215 215 215 216 216 216 218 220 222 225 227 229 230 232 236 238 241 244 247 250 253 256 258 259
27 26 26 26 26 27 27 27 26 26 26 26 26 25 25 26 28 30 33 33 32 35 39 42 43 40 36 33 34 38 37 32 26 28 51 67 78 129 149 155 167 178 168 169 172 176 181 182 185 189 190 193 197 200 202 202 203 204 205 208 211 212 213 215 216 216 216 216 217 218 218 220 222 225 227 229 231 233 236 239 242 245 249 252 255 258 260 261
28 28 28 27 27 28 29 28 27 27 27 27 27 27 27 30 34 37 39 39 41 45 45 44 43 40 38 37 38 42 40 34 35 52 76 74 84 108 115 120 131 145 147 151 156 163 169 169 171 174 177 185 190 193 197 198 198 201 203 205 208 210 212 213 214 215 216 216 217 218 219 221 222 225 227 230 232 235 238 241 244 247 250 253 255 257 258 260
30 30 30 29 29 30 31 31 29 28 29 29 28 27 28 33 39 43 44 46 49 49 47 46 44 40 40 41 43 47 44 38 43 73 87 81 87 90 88 106 120 130 136 139 142 149 156 156 159 160 163 177 183 185 191 194 194 195 198 201 204 207 210 212 214 215 216 216 217 217 219 221 224 226 229 231 234 237 240 243 245 247 249 250 252 254 256 258
32 32 33 32 32 31 33 34 31 30 32 32 32 31 31 34 41 46 48 52 53 50 49 49 46 42 43 45 46 48 46 42 52 82 95 92 87 74 78 110 121 127 130 130 131 137 143 145 151 153 156 169 175 176 183 188 191 193 194 195 198 203 207 210 211 214 216 217 218 218 220 222 224 227 230 232 235 237 239 241 243 245 246 248 250 252 254 255
34 34 35 35 35 34 35 36 34 32 34 36 36 36 37 38 42 49 55 58 57 53 51 49 47 47 48 49 50 50 48 48 58 79 95 97 91 84 97 113 122 126 126 125 125 129 133 137 145 148 150 162 166 166 172 179 186 190 191 191 192 196 202 206 209 211 214 218 219 220 222 224 225 227 229 231 233 236 237 239 242 244 247 248 249 251 252 254
35 36 37 38 37 36 36 39 38 34 35 38 40 40 42 44 48 55 64 66 62 57 53 51 51 52 53 54 55 54 55 55 61 73 84 93 95 97 106 116 121 122 122 121 121 123 125 129 137 141 144 153 155 154 158 169 180 185 187 189 188 190 196 201 206 208 210 215 219 220 222 225 226 226 228 229 231 234 236 238 241 243 244 246 247 250 253 257
37 37 38 39 40 39 38 40 41 37 36 40 42 42 44 48 51 56 66 69 64 59 55 53 54 56 56 58 61 61 62 62 65 72 79 85 91 98 106 112 114 115 115 115 115 115 116 119 125 132 139 146 146 144 146 161 176 180 183 185 183 183 190 194 199 205 207 210 215 217 220 224 226 226 227 229 231 233 235 235 236 238 241 244 248 251 254 257
37 38 40 40 41 42 41 42 43 40 38 41 44 44 46 48 52 55 63 67 65 61 58 55 57 59 58 59 63 65 67 67 68 73 77 81 86 94 102 106 108 110 110 111 110 109 110 113 116 125 137 142 139 136 141 159 172 175 177 178 175 175 184 191 194 199 203 207 211 212 215 221 225 225 226 228 229 230 232 233 235 239 243 247 250 254 257 261
38 38 40 41 42 43 43 44 46 43 40 43 45 46 47 49 51 55 59 64 65 64 61 60 61 62 61 61 64 67 69 69 68 71 75 79 83 89 96 102 106 107 109 110 108 106 109 110 114 126 135 137 137 138 149 162 164 167 172 173 172 174 182 190 193 196 201 205 209 210 213 217 220 222 223 225 227 229 233 236 239 243 246 250 253 257 261 264
39 38 40 42 42 44 45 44 47 46 43 45 47 47 48 50 52 55 58 61 63 64 64 64 66 66 65 64 65 66 68 70 71 72 75 78 81 86 90 97 103 105 107 108 106 108 111 111 118 132 136 139 143 147 154 159 156 160 170 173 177 179 183 188 192 197 200 203 206 208 212 215 217 220 223 226 229 232 236 239 241 244 247 251 254 256 259 260
39 39 40 42 42 44 46 45 47 48 44 46 49 49 48 50 53 55 57 59 63 64 65 67 70 71 69 66 66 67 67 70 72 74 76 79 83 87 90 93 98 103 106 106 108 113 116 121 130 137 139 143 147 148 153 155 152 157 168 174 178 182 183 186 191 195 198 200 203 206 211 215 218 221 225 228 231 234 236 239 242 245 247 249 250 252 254 256
39 39 39 42 42 43 46 46 46 48 46 45 50 50 47 50 54 56 57 59 62 64 65 67 70 71 71 70 70 69 69 70 72 73 76 80 84 89 91 93 95 97 99 101 104 109 113 120 128 133 137 139 140 144 151 154 153 154 163 167 170 180 184 186 190 192 196 198 200 205 210 213 217 220 224 228 231 233 236 239 242 244 245 247 249 251 254 258
40 40 40 42 43 43 45 46 46 48 48 47 49 48 45 50 56 57 58 60 61 62 63 65 68 70 72 72 71 72 72 72 74 75 77 80 83 85 87 90 92 93 94 96 98 103 107 113 119 125 129 128 129 137 143 144 143 143 149 150 149 162 172 177 183 186 189 192 195 201 206 208 210 213 218 222 225 229 232 235 239 241 245 247 251 254 257 261
41 42 42 43 45 45 45 47 47 47 49 49 47 44 45 51 56 58 59 61 61 62 63 64 66 68 70 71 71 72 73 74 76 78 81 83 83 83 84 85 87 89 91 96 99 101 104 108 111 115 117 117 120 126 127 127 129 133 142 143 141 147 150 154 164 168 169 172 177 185 190 195 200 203 208 213 217 223 228 232 236 240 244 248 251 255 259 263
42 43 44 44 46 47 45 48 50 47 49 51 42 41 47 52 55 57 59 61 61 62 63 64 65 66 67 69 70 70 71 73 76 79 82 84 83 83 83 83 85 86 86 89 93 95 99 102 105 106 108 110 114 117 117 119 123 128 133 133 131 135 138 139 143 148 151 153 159 166 169 176 186 191 197 203 209 216 222 228 234 239 244 248 253 257 261 265
45 44 45 45 46 48 46 48 51 49 51 52 43 43 49 52 54 57 59 61 62 63 64 65 66 67 68 69 70 71 72 73 75 77 79 81 82 82 83 84 86 87 86 85 86 88 91 95 98 99 101 103 105 107 107 109 113 117 119 119 120 124 127 131 134 139 145 149 154 161 166 175 185 193 200 207 213 219 225 231 236 241 245 250 255 259 266 273
46 45 46 46 45 48 48 48 52 53 53 52 47 47 51 52 54 57 59 61 62 63 65 65 67 68 69 70 71 72 73 74 74 75 76 77 80 81 82 84 86 87 87 86 85 84 85 90 94 94 95 97 98 99 100 101 104 108 111 113 115 116 118 123 129 134 140 146 153 161 168 177 184 191 197 204 212 218 226 232 235 236 238 244 258 271 283 291
47 46 46 46 45 48 48 48 53 55 54 53 51 51 53 53 55 56 58 60 61 62 64 65 67 68 69 70 71 72 73 74 74 74 75 76 78 80 81 82 84 85 85 84 84 84 83 86 91 92 92 93 94 95 96 97 99 101 104 106 108 109 111 115 119 121 124 128 134 139 136 133 136 139 141 144 149 152 155 160 161 146 131 117 101 58 275 273
47 47 46 47 47 47 48 50 53 53 53 54 55 55 56 56 56 56 57 58 59 61 63 65 67 68 70 70 71 73 73 74 75 75 76 77 78 80 80 81 82 82 83 83 83 85 84 84 87 90 92 92 93 94 95 96 98 100 102 104 106 108 108 110 111 111 114 117 119 121 119 118 117 116 115 114 113 113 112 113 113 112 113 119 135 198 249 268
47 48 46 46 47 47 47 49 50 51 53 56 57 58 58 59 58 58 58 57 58 59 61 63 65 67 69 70 71 72 73 74 75 75 76 77 78 80 81 81 82 82 83 83 84 85 86 87 88 91 92 93 94 95 96 98 99 100 102 103 104 105 105 105 105 106 107 109 110 111 110 109 107 106 106 106 107 109 111 113 116 116 117 121 134 304 312 318
45 46 45 44 45 45 46 48 48 50 53 55 57 59 60 60 61 60 60 58 58 58 59 60 62 64 66 67 68 69 70 72 73 73 75 77 78 79 80 81 82 83 84 85 85 86 87 88 89 91 92 93 94 95 96 96 97 98 99 100 101 101 101 102 103 104 105 105 105 105 105 104 104 105 106 106 107 107 104 102 96 86 68 45 24 9 358 350
42 43 42 42 43 43 44 46 46 48 51 53 56 59 60 61 62 62 62 61 60 59 59 59 60 61 62 64 66 66 66 68 69 70 72 74 75 77 79 80 81 83 84 85 86 87 87 87 88 89 91 92 93 94 94 95 96 97 97 98 99 99 100 100 100 100 101 100 100 99 99 99 99 99 97 95 91 86 80 73 62 52 41 30 19 8 357 347
39 39 40 40 41 41 42 43 43 44 47 50 53 56 59 60 62 62 63 62 62 61 61 60 59 59 60 61 62 63 63 64 66 67 68 69 71 72 74 76 78 79 80 82 83 83 84 86 86 86 88 90 91 92 92 93 93 93 94 94 94 93 94 93 92 92 92 91 90 90 90 88 85 84 81 77 73 69 64 58 50 40 29 19 7 355 344 337
35 37 37 37 38 40 42 41 41 42 43 46 49 52 55 58 60 62 62 63 63 62 62 62 60 60 59 60 60 60 61 62 63 65 66 66 67 69 71 72 73 74 76 76 77 78 80 82 83 83 83 84 86 87 86 86 86 86 86 86 85 85 84 84 84 84 84 83 82 81 79 75 72 70 68 65 62 57 53 48 40 29 17 2 346 336 330 325
28 32 32 33 35 37 40 41 41 41 41 43 46 47 50 54 57 59 61 61 62 62 62 62 61 61 61 60 60 59 59 60 61 62 64 65 66 67 68 69 70 71 72 72 74 75 76 77 78 79 80 80 81 81 81 82 82 82 82 82 82 81 81 80 80 80 80 79 77 76 74 72 71 70 69 67 63 56 48 39 25 9 351 336 326 321 319 316
17 24 26 28 30 31 35 38 39 41 42 42 44 45 46 49 52 55 58 59 61 61 61 61 61 62 62 61 61 60 59 59 59 60 62 63 64 65 66 67 68 69 69 70 71 72 73 74 75 76 77 77 77 78 79 80 81 82 82 82 82 81 81 81 80 79 78 77 76 75 72 71 69 69 68 65 58 48 36 20 0 342 327 321 317 315 313 311
352 6 14 18 21 24 29 32 34 38 40 42 43 44 44 46 48 50 53 56 58 59 60 60 61 61 61 61 62 62 62 61 60 60 60 60 61 63 64 65 66 67 68 69 70 70 71 72 73 74 74 74 75 76 77 78 79 81 82 83 83 82 82 82 80 80 78 76 75 75 73 69 61 50 41 30 19 9 359 346 330 318 312 310 309 308 306 305
324 339 352 1 7 13 18 24 28 33 37 39 41 43 43 45 45 46 48 51 54 56 58 59 60 60 60 60 61 61 62 62 62 61 59 59 59 60 61 61 62 63 65 66 67 68 69 70 71 72 73 73 74 75 75 75 76 78 79 81 82 82 81 80 77 75 72 68 65 60 55 48 28 3 345 336 330 328 327 322 312 306 305 304 303 302 302 303
300 316 329 340 350 356 2 9 16 23 30 34 37 40 42 43 44 45 45 46 48 50 53 55 57 58 58 59 59 60 61 61 62 62 61 60 59 58 58 58 58 59 61 62 63 64 65 66 67 68 70 72 73 74 76 77 76 75 74 73 74 76 77 77 74 70 65 59 52 36 10 346 332 324 319 315 310 309 312 309 304 301 301 301 301 303 306 308
280 295 307 319 331 340 346 352 358 5 15 24 30 35 38 40 43 44 44 44 44 44 45 48 51 54 55 56 57 58 59 59 59 60 61 61 61 60 59 58 57 56 56 56 56 57 59 60 61 63 64 65 66 68 70 73 75 74 71 66 63 61 62 65 67 65 56 35 9 329 304 300 300 299 299 299 299 301 304 304 302 301 302 304 306 309 311 312
259 271 285 299 310 321 329 336 344 350 357 5 15 25 31 34 38 40 42 43 43 42 41 40 41 44 47 50 52 53 55 56 57 59 59 59 59 60 61 62 62 60 58 55 53 51 51 51 53 55 56 56 58 58 58 61 65 66 62 54 42 29 21 20 19 26 26 359 319 306 296 292 292 292 293 294 296 300 305 307 306 306 307 308 309 310 311 311
Height
5741 5739 5738 5737 5735 5734 5732 5731 5729 5727 5726 5724 5722 5721 5719 5718 5716 5715 5714 5714 5713 5712 5711 5711 5711 5711 5711 5712 5713 5715 5716 5717 5719 5721 5723 5725 5727 5729 5732 5734 5736 5739 5742 5745 5747 5750 5752 5755 5758 5761 5764 5767 5770 5773 5776 5779 5781 5784 5786 5789 5793 5795 5797 5799 5802 5804 5806 5807 5809 5810 5812 5814 5815 5816 5817 5819 5821 5822 5824 5825 5827 5828 5829 5830 5830 5831 5832 5832
5740 5738 5737 5736 5734 5733 5731 5729 5727 5725 5723 5721 5719 5717 5715 5713 5712 5710 5709 5708 5707 5706 5706 5705 5705 5705 5705 5706 5706 5707 5708 5709 5711 5713 5715 5718 5720 5722 5725 5728 5730 5733 5736 5738 5741 5744 5746 5749 5753 5756 5759 5762 5765 5768 5771 5774 5777 5779 5783 5786 5789 5792 5794 5796 5799 5801 5803 5804 5806 5808 5810 5811 5813 5814 5816 5817 5819 5821 5822 5824 5825 5827 5828 5829 5830 5830 5831 5830
5739 5737 5736 5734 5733 5731 5729 5727 5725 5722 5720 5718 5715 5713 5710 5709 5707 5705 5703 5702 5701 5700 5700 5699 5699 5698 5698 5699 5699 5700 5700 5701 5703 5705 5707 5710 5712 5715 5718 5721 5723 5726 5729 5732 5735 5738 5741 5744 5747 5751 5754 5757 5760 5763 5767 5770 5772 5776 5779 5781 5785 5788 5791 5793 5795 5798 5800 5801 5804 5806 5807 5809 5811 5812 5814 5815 5817 5819 5820 5822 5824 5825 5826 5827 5828 5829 5829 5829
5739 5737 5735 5733 5731 5729 5727 5725 5722 5720 5717 5714 5711 5708 5706 5704 5701 5699 5698 5696 5695 5694 5693 5692 5692 5692 5691 5692 5692 5693 5693 5693 5695 5697 5700 5702 5704 5707 5710 5713 5716 5719 5722 5725 5729 5732 5735 5738 5741 5745 5748 5752 5755 5758 5761 5765 5768 5772 5774 5777 5781 5785 5787 5790 5792 5795 5797 5798 5800 5802 5804 5806 5808 5810 5811 5813 5814 5816 5818 5820 5822 5823 5825 5825 5826 5827 5828 5828
5738 5736 5734 5732 5730 5728 5725 5722 5719 5716 5713 5710 5707 5704 5701 5698 5696 5693 5692 5690 5688 5687 5686 5685 5684 5684 5684 5684 5684 5685 5685 5685 5687 5690 5692 5694 5697 5699 5702 5705 5708 5711 5715 5718 5722 5725 5728 5731 5735 5739 5742 5746 5750 5753 5756 5760 5764 5767 5770 5773 5778 5781 5783 5787 5790 5792 5794 5795 5797 5799 5802 5803 5805 5807 5808 5810 5812 5814 5816 5818 5820 5821 5822 5823 5824 5825 5826 5826
5738 5736 5734 5732 5729 5726 5723 5720 5717 5713 5709 5706 5702 5698 5695 5692 5689 5687 5685 5683 5681 5680 5678 5677 5677 5676 5676 5676 5676 5677 5677 5677 5679 5682 5684 5686 5688 5691 5694 5697 5700 5703 5707 5711 5715 5718 5721 5725 5729 5733 5736 5740 5743 5747 5752 5755 5759 5762 5766 5770 5773 5777 5780 5783 5786 5789 5791 5792 5794 5796 5799 5801 5803 5805 5806 5808 5810 5812 5814 5816 5817 5819 5820 5821 5822 5823 5824 5824
5738 5736 5733 5731 5728 5725 5721 5718 5714 5710 5706 5702 5697 5693 5690 5686 5683 5681 5679 5677 5675 5673 5671 5670 5669 5668 5668 5668 5668 5668 5669 5669 5671 5673 5675 5677 5680 5683 5685 5688 5692 5695 5699 5703 5707 5711 5715 5719 5723 5727 5730 5734 5738 5742 5746 5750 5754 5758 5761 5766 5770 5773 5776 5779 5782 5785 5788 5790 5792 5794 5796 5798 5801 5803 5805 5806 5808 5810 5812 5813 5815 5817 5818 5819 5820 5821 5822 5822
5738 5735 5732 5730 5727 5723 5720 5716 5712 5707 5702 5697 5692 5688 5684 5681 5678 5676 5673 5671 5669 5667 5665 5664 5662 5661 5660 5660 5660 5660 5660 5661 5663 5664 5665 5668 5670 5673 5676 5679 5683 5687 5691 5695 5700 5704 5708 5712 5716 5720 5724 5728 5732 5736 5741 5745 5749 5752 5757 5761 5766 5769 5773 5776 5779 5782 5784 5787 5789 5791 5793 5796 5798 5801 5803 5805 5806 5808 5810 5811 5813 5814 5815 5817 5818 5819 5820 5820
5737 5734 5731 5728 5725 5721 5717 5713 5709 5704 5698 5693 5688 5684 5680 5677 5674 5671 5669 5666 5664 5662 5660 5658 5657 5655 5654 5653 5653 5653 5652 5653 5654 5656 5657 5659 5661 5664 5667 5671 5674 5678 5683 5688 5692 5697 5701 5705 5710 5714 5718 5723 5727 5731 5736 5740 5743 5748 5752 5757 5761 5765 5769 5772 5775 5778 5781 5784 5786 5788 5790 5793 5795 5797 5800 5803 5804 5805 5807 5808 5810 5812 5813 5814 5815 5816 5817 5818
5736 5733 5730 5727 5723 5720 5715 5711 5706 5700 5695 5690 5685 5680 5677 5674 5670 5667 5665 5662 5660 5658 5656 5654 5652 5650 5649 5648 5647 5647 5646 5646 5647 5648 5649 5651 5653 5656 5658 5661 5665 5670 5675 5680 5685 5689 5694 5699 5703 5708 5713 5717 5722 5726 5731 5734 5739 5744 5748 5753 5757 5761 5765 5768 5771 5775 5778 5781 5783 5785 5787 5789 5792 5795 5797 5800 5802 5803 5805 5806 5807 5809 5810 5812 5813 5814 5815 5816
5735 5732 5729 5726 5722 5718 5714 5709 5703 5697 5692 5687 5682 5678 5674 5670 5667 5664 5661 5659 5656 5654 5652 5650 5649 5647 5645 5644 5643 5642 5641 5641 5641 5641 5642 5643 5645 5648 5650 5653 5657 5661 5666 5672 5677 5682 5686 5691 5696 5701 5706 5711 5716 5721 5726 5730 5735 5740 5744 5749 5753 5756 5760 5764 5767 5771 5775 5778 5780 5782 5784 5786 5789 5792 5795 5797 5799 5801 5802 5804 5805 5806 5808 5810 5811 5811 5812 5813
5735 5732 5729 5725 5721 5717 5713 5707 5701 5695 5690 5685 5680 5676 5672 5668 5665 5662 5659 5656 5654 5652 5650 5648 5647 5645 5643 5642 5641 5639 5638 5637 5637 5637 5637 5638 5639 5640 5642 5645 5649 5653 5658 5663 5669 5674 5679 5684 5689 5695 5700 5706 5711 5716 5721 5726 5731 5735 5740 5744 5748 5752 5756 5759 5763 5767 5771 5774 5777 5780 5781 5783 5786 5788 5791 5794 5796 5798 5800 5802 5803 5804 5806 5808 5809 5809 5810 5811
5735 5732 5728 5724 5720 5716 5711 5705 5699 5693 5688 5684 5679 5675 5671 5668 5664 5661 5658 5655 5653 5651 5649 5647 5645 5643 5641 5640 5638 5637 5636 5635 5634 5634 5633 5633 5634 5635 5636 5638 5642 5645 5649 5654 5660 5666 5671 5677 5683 5689 5695 5701 5706 5711 5716 5721 5726 5730 5735 5739 5744 5748 5752 5755 5760 5764 5767 5771 5774 5776 5778 5781 5784 5786 5789 5792 5794 5796 5798 5799 5801 5803 5804 5805 5806 5807 5808 5809
5735 5731 5728 5724 5720 5715 5709 5703 5697 5692 5687 5683 5679 5675 5671 5668 5665 5662 5658 5655 5653 5650 5648 5646 5644 5642 5640 5638 5636 5635 5634 5633 5632 5631 5631 5630 5631 5631 5632 5633 5636 5639 5642 5647 5652 5658 5664 5670 5677 5683 5689 5695 5701 5706 5711 5716 5721 5726 5731 5735 5739 5744 5747 5752 5756 5760 5764 5767 5770 5774 5776 5779 5782 5785 5788 5790 5792 5793 5795 5797 5799 5801 5801 5802 5804 5805 5806 5807
5735 5731 5727 5723 5719 5714 5709 5703 5697 5691 5687 5683 5679 5675 5672 5669 5665 5662 5659 5656 5653 5650 5648 5646 5643 5641 5638 5636 5635 5633 5632 5631 5629 5629 5628 5628 5628 5628 5628 5629 5631 5633 5636 5640 5645 5650 5657 5664 5670 5677 5683 5689 5695 5700 5706 5711 5716 5722 5726 5730 5734 5739 5744 5749 5753 5757 5761 5764 5768 5772 5774 5778 5781 5783 5785 5787 5789 5791 5793 5795 5797 5798 5799 5800 5802 5803 5804 5805
5735 5731 5728 5723 5719 5714 5709 5703 5697 5691 5687 5683 5679 5675 5672 5669 5665 5662 5659 5656 5653 5650 5647 5645 5642 5639 5637 5635 5633 5631 5630 5629 5627 5626 5626 5625 5625 5625 5625 5626 5627 5628 5631 5634 5638 5644 5650 5657 5664 5671 5677 5683 5689 5694 5701 5706 5711 5717 5722 5727 5732 5736 5740 5745 5750 5754 5759 5762 5766 5769 5772 5776 5778 5781 5783 5785 5787 5789 5791 5793 5794 5796 5797 5798 5800 5801 5801 5802
5735 5732 5728 5724 5719 5714 5709 5703 5697 5692 5687 5683 5680 5676 5673 5669 5666 5663 5660 5657 5653 5650 5647 5644 5641 5638 5635 5633 5631 5630 5628 5627 5625 5624 5624 5623 5622 5623 5623 5623 5624 5625 5626 5629 5633 5638 5644 5651 5658 5664 5671 5677 5683 5690 5695 5700 5706 5712 5717 5724 5730 5734 5739 5743 5747 5752 5756 5759 5763 5767 5770 5773 5776 5779 5781 5783 5785 5787 5789 5791 5792 5793 5794 5796 5798 5799 5799 5800
5735 5732 5728 5724 5720 5714 5709 5703 5697 5692 5688 5683 5680 5677 5673 5670 5667 5663 5660 5656 5653 5649 5646 5642 5639 5636 5634 5631 5629 5627 5626 5624 5623 5623 5622 5621 5620 5620 5620 5621 5621 5622 5623 5625 5629 5633 5639 5646 5652 5659 5665 5672 5679 5686 5691 5697 5705 5710 5715 5721 5726 5730 5736 5741 5745 5750 5754 5757 5761 5765 5768 5771 5774 5776 5778 5781 5783 5785 5786 5788 5789 5791 5792 5794 5796 5797 5797 5798
5736 5733 5729 5724 5720 5715 5709 5703 5698 5693 5688 5684 5680 5676 5673 5669 5666 5663 5659 5655 5652 5649 5645 5641 5638 5635 5632 5630 5628 5626 5623 5622 5621 5621 5620 5619 5618 5618 5618 5618 5619 5620 5621 5622 5625 5630 5635 5641 5647 5654 5661 5668 5675 5682 5689 5698 5704 5709 5715 5721 5724 5728 5734 5739 5744 5749 5752 5756 5759 5763 5766 5769 5772 5774 5776 5779 5781 5783 5785 5786 5788 5789 5790 5792 5793 5794 5795 5795
5737 5733 5729 5725 5720 5715 5710 5704 5699 5693 5689 5685 5681 5677 5673 5670 5666 5663 5660 5656 5653 5650 5646 5641 5638 5635 5631 5628 5626 5624 5622 5621 5620 5619 5617 5616 5616 5615 5615 5615 5616 5618 5619 5620 5623 5627 5632 5637 5643 5649 5657 5665 5673 5680 5688 5694 5700 5707 5714 5719 5723 5729 5733 5738 5742 5747 5751 5754 5758 5762 5765 5768 5770 5772 5775 5777 5779 5781 5783 5784 5786 5787 5788 5790 5791 5791 5792 5793
5737 5734 5730 5726 5721 5716 5711 5706 5701 5696 5690 5686 5681 5678 5674 5671 5668 5665 5661 5658 5655 5651 5646 5642 5638 5635 5632 5628 5626 5623 5621 5620 5618 5617 5615 5614 5613 5613 5613 5613 5615 5616 5617 5619 5621 5625 5630 5635 5641 5647 5655 5664 5671 5679 5685 5691 5698 5706 5712 5716 5721 5727 5732 5737 5741 5745 5749 5753 5756 5760 5763 5766 5768 5771 5773 5775 5777 5779 5781 5782 5784 5785 5787 5788 5789 5789 5790 5791
5739 5735 5731 5727 5723 5718 5713 5708 5703 5698 5693 5687 5683 5678 5675 5672 5669 5666 5663 5659 5656 5652 5647 5643 5639 5636 5632 5629 5626 5623 5621 5619 5617 5615 5613 5612 5612 5612 5612 5612 5614 5615 5616 5618 5621 5625 5629 5634 5640 5647 5654 5661 5668 5676 5683 5690 5698 5704 5709 5714 5719 5725 5730 5735 5739 5744 5748 5751 5755 5758 5761 5764 5766 5769 5771 5773 5775 5777 5779 5781 5782 5784 5785 5786 5787 5787 5788 5788
5740 5737 5733 5729 5725 5720 5715 5710 5706 5701 5695 5689 5684 5679 5676 5672 5670 5668 5665 5662 5658 5654 5649 5644 5640 5637 5633 5630 5626 5623 5620 5618 5615 5613 5613 5612 5611 5612 5613 5613 5613 5614 5616 5618 5621 5625 5629 5633 5639 5646 5653 5659 5665 5673 5681 5689 5696 5702 5707 5712 5718 5723 5728 5733 5737 5742 5746 5749 5753 5756 5759 5762 5765 5767 5769 5771 5773 5775 5777 5779 5781 5782 5783 5784 5784 5785 5785 5786
5742 5739 5735 5731 5727 5723 5718 5713 5709 5704 5698 5691 5685 5681 5676 5673 5672 5669 5667 5664 5660 5656 5651 5646 5643 5640 5636 5631 5627 5624 5621 5617 5615 5613 5613 5613 5612 5613 5613 5613 5614 5615 5617 5619 5622 5627 5630 5634 5640 5645 5653 5660 5665 5672 5680 5687 5693 5699 5705 5711 5717 5723 5728 5732 5737 5740 5744 5747 5750 5754 5757 5760 5763 5765 5767 5769 5772 5774 5776 5777 5779 5780 5781 5781 5782 5783 5783 5784
5744 5741 5738 5734 5730 5726 5722 5717 5713 5709 5703 5696 5690 5684 5679 5676 5674 5672 5670 5667 5663 5659 5654 5650 5648 5644 5639 5634 5629 5626 5623 5619 5616 5614 5614 5614 5614 5615 5614 5614 5615 5617 5619 5621 5624 5629 5632 5637 5642 5647 5654 5661 5666 5673 5680 5687 5693 5698 5703 5710 5716 5722 5726 5731 5735 5739 5742 5745 5748 5752 5755 5757 5761 5763 5765 5768 5770 5772 5773 5775 5776 5777 5778 5779 5780 5781 5781 5781
5746 5743 5740 5736 5733 5730 5725 5721 5717 5713 5709 5702 5696 5691 5685 5681 5678 5676 5675 5671 5666 5663 5658 5655 5652 5647 5642 5638 5634 5631 5628 5624 5620 5617 5617 5617 5617 5617 5617 5617 5618 5620 5622 5624 5627 5631 5635 5640 5646 5651 5657 5663 5668 5675 5682 5687 5693 5699 5704 5709 5714 5720 5725 5729 5734 5737 5741 5744 5747 5751 5753 5756 5759 5761 5764 5766 5768 5770 5771 5773 5774 5775 5776 5777 5778 5778 5778 5779
5748 5746 5742 5739 5735 5732 5729 5724 5720 5717 5713 5707 5702 5696 5691 5687 5683 5680 5679 5674 5669 5665 5661 5658 5655 5650 5646 5642 5639 5638 5633 5628 5624 5621 5621 5621 5620 5620 5621 5621 5623 5625 5627 5628 5630 5635 5639 5644 5649 5654 5660 5665 5670 5677 5684 5689 5694 5699 5704 5709 5714 5718 5723 5728 5732 5736 5740 5743 5746 5749 5752 5754 5757 5759 5762 5764 5766 5768 5769 5771 5772 5773 5774 5774 5774 5775 5776 5777
5751 5748 5744 5741 5738 5735 5732 5727 5723 5721 5718 5712 5706 5701 5696 5691 5687 5685 5682 5675 5670 5667 5664 5661 5658 5654 5650 5647 5646 5644 5639 5635 5632 5628 5627 5626 5625 5625 5626 5627 5628 5630 5632 5635 5636 5638 5644 5649 5653 5659 5664 5669 5673 5679 5687 5692 5695 5699 5704 5710 5714 5718 5722 5726 5730 5734 5738 5741 5743 5747 5750 5752 5755 5758 5760 5762 5764 5766 5768 5769 5770 5770 5771 5771 5772 5773 5774 5775
5753 5750 5747 5744 5741 5738 5735 5730 5726 5724 5721 5716 5711 5707 5702 5697 5693 5690 5683 5675 5671 5670 5667 5665 5662 5659 5655 5653 5652 5649 5645 5644 5640 5635 5633 5632 5631 5632 5632 5631 5635 5637 5637 5642 5644 5644 5649 5654 5657 5663 5668 5672 5676 5682 5689 5693 5697 5701 5705 5710 5714 5718 5722 5725 5728 5732 5736 5739 5742 5745 5749 5751 5753 5756 5758 5760 5762 5764 5765 5766 5767 5768 5769 5770 5771 5772 5772 5773
5754 5752 5749 5746 5743 5740 5737 5734 5730 5727 5725 5720 5716 5712 5708 5703 5700 5693 5682 5675 5674 5673 5671 5670 5667 5663 5661 5660 5658 5654 5652 5649 5644 5641 5641 5641 5640 5642 5641 5638 5641 5643 5643 5648 5651 5651 5655 5659 5662 5668 5671 5675 5679 5683 5688 5692 5697 5702 5706 5710 5715 5718 5721 5724 5728 5732 5735 5738 5741 5744 5747 5749 5751 5753 5755 5757 5759 5760 5762 5764 5765 5766 5767 5768 5769 5770 5770 5771
5757 5754 5751 5748 5746 5743 5740 5737 5733 5730 5729 5725 5720 5717 5713 5711 5705 5693 5682 5679 5678 5677 5676 5675 5672 5669 5669 5668 5664 5660 5657 5652 5649 5650 5650 5648 5649 5650 5650 5648 5648 5650 5650 5654 5655 5657 5660 5663 5667 5672 5674 5677 5681 5684 5688 5693 5698 5704 5708 5712 5715 5718 5721 5725 5728 5731 5734 5737 5740 5743 5745 5747 5749 5751 5753 5755 5757 5759 5760 5762 5763 5764 5765 5766 5767 5768 5768 5768
5759 5756 5754 5751 5749 5746 5743 5741 5737 5734 5732 5729 5725 5721 5720 5717 5706 5694 5688 5685 5683 5683 5683 5680 5678 5676 5675 5673 5669 5666 5664 5659 5657 5658 5657 5656 5657 5657 5657 5657 5657 5657 5657 5658 5659 5661 5664 5667 5671 5675 5678 5681 5684 5687 5691 5695 5699 5704 5709 5713 5716 5719 5722 5725 5728 5731 5734 5737 5740 5742 5744 5747 5749 5751 5753 5754 5756 5758 5759 5760 5761 5762 5763 5764 5765 5765 5765 5765
5761 5758 5756 5754 5751 5749 5746 5744 5741 5737 5735 5734 5729 5726 5726 5719 5706 5698 5696 5692 5690 5690 5688 5685 5683 5681 5679 5678 5675 5673 5671 5667 5665 5665 5664 5664 5665 5664 5663 5664 5666 5666 5665 5664 5665 5666 5667 5671 5675 5678 5681 5685 5688 5692 5695 5697 5700 5705 5711 5715 5719 5723 5725 5727 5730 5732 5735 5737 5740 5742 5744 5746 5748 5750 5752 5753 5755 5756 5757 5758 5759 5760 5761 5762 5762 5762 5763 5763
5763 5761 5759 5756 5754 5752 5749 5747 5744 5740 5739 5738 5733 5731 5730 5719 5709 5706 5704 5700 5698 5696 5693 5691 5689 5686 5685 5683 5680 5679 5677 5674 5672 5672 5672 5673 5673 5671 5670 5671 5673 5674 5673 5672 5673 5673 5672 5675 5680 5682 5685 5688 5692 5698 5700 5702 5705 5709 5714 5718 5721 5725 5727 5729 5732 5734 5736 5738 5740 5742 5744 5746 5748 5749 5751 5752 5753 5754 5755 5756 5757 5758 5759 5760 5760 5760 5760 5760
5766 5764 5762 5759 5757 5755 5752 5750 5747 5745 5742 5739 5737 5737 5731 5720 5715 5714 5711 5707 5706 5702 5700 5698 5694 5692 5690 5688 5686 5685 5683 5681 5680 5680 5681 5681 5679 5677 5677 5677 5678 5679 5680 5680 5680 5679 5678 5680 5684 5688 5690 5692 5696 5702 5705 5707 5710 5714 5717 5720 5723 5726 5728 5730 5733 5735 5736 5739 5740 5742 5743 5745 5747 5748 5749 5751 5752 5753 5754 5755 5756 5757 5757 5758 5758 5758 5758 5758
5768 5766 5764 5762 5760 5757 5756 5752 5750 5748 5743 5740 5744 5741 5731 5724 5722 5720 5717 5714 5712 5709 5707 5704 5701 5698 5695 5693 5692 5690 5689 5688 5688 5688 5688 5686 5684 5683 5683 5683 5684 5685 5687 5688 5687 5687 5685 5685 5689 5693 5694 5698 5702 5706 5709 5711 5713 5717 5720 5722 5724 5727 5729 5731 5733 5735 5737 5739 5740 5742 5743 5745 5746 5747 5748 5750 5751 5752 5753 5753 5754 5755 5755 5755 5755 5756 5756 5756
5770 5769 5766 5765 5762 5759 5758 5755 5752 5750 5745 5745 5749 5743 5734 5731 5728 5725 5723 5721 5718 5716 5714 5711 5708 5705 5702 5700 5698 5696 5695 5695 5695 5695 5693 5690 5687 5687 5688 5688 5690 5691 5693 5694 5694 5695 5694 5691 5694 5698 5700 5704 5707 5709 5712 5715 5717 5720 5722 5724 5726 5728 5731 5733 5734 5736 5737 5739 5740 5742 5743 5744 5745 5746 5747 5748 5749 5750 5751 5751 5752 5753 5753 5753 5754 5754 5754 5754
5772 5771 5769 5767 5764 5762 5760 5758 5755 5752 5749 5751 5752 5744 5739 5737 5733 5731 5729 5726 5724 5723 5721 5718 5715 5711 5709 5708 5705 5703 5703 5702 5701 5700 5697 5694 5692 5692 5694 5694 5695 5696 5698 5699 5698 5699 5700 5698 5698 5702 5705 5708 5711 5713 5715 5717 5720 5722 5724 5726 5728 5730 5732 5733 5735 5736 5738 5739 5740 5741 5742 5743 5744 5745 5746 5747 5748 5749 5750 5750 5751 5751 5752 5752 5752 5753 5753 5753
5774 5773 5771 5769 5767 5765 5763 5762 5759 5755 5754 5755 5753 5747 5744 5741 5738 5736 5734 5732 5731 5728 5726 5723 5720 5718 5717 5715 5712 5711 5710 5709 5708 5706 5704 5701 5699 5699 5700 5700 5700 5701 5702 5703 5702 5703 5706 5704 5703 5706 5709 5711 5713 5715 5717 5719 5722 5723 5725 5727 5729 5731 5732 5733 5735 5736 5737 5739 5740 5741 5742 5742 5744 5745 5746 5746 5747 5748 5749 5750 5751 5751 5751 5752 5752 5752 5752 5753
5776 5775 5773 5772 5770 5768 5766 5765 5761 5759 5758 5758 5754 5751 5748 5745 5743 5741 5739 5737 5736 5733 5731 5728 5726 5725 5723 5721 5720 5719 5718 5716 5715 5714 5711 5709 5707 5707 5707 5707 5707 5707 5707 5708 5708 5708 5710 5710 5709 5710 5713 5715 5716 5718 5720 5722 5724 5725 5727 5729 5730 5732 5733 5734 5736 5737 5738 5740 5741 5742 5742 5743 5744 5745 5746 5747 5748 5749 5750 5750 5751 5751 5752 5752 5752 5752 5753 5753
5778 5777 5775 5774 5772 5771 5769 5767 5764 5763 5762 5760 5757 5754 5752 5750 5748 5746 5744 5742 5740 5738 5736 5734 5732 5730 5728 5728 5727 5726 5724 5722 5722 5721 5718 5716 5716 5715 5714 5714 5714 5714 5714 5714 5715 5715 5716 5717 5717 5717 5718 5720 5722 5723 5725 5726 5728 5729 5730 5732 5733 5735 5736 5737 5738 5739 5741 5742 5743 5744 5745 5745 5746 5747 5748 5749 5749 5750 5751 5751 5752 5752 5752 5753 5753 5753 5753 5753
5780 5778 5777 5776 5774 5773 5771 5769 5768 5767 5765 5763 5760 5758 5756 5754 5752 5750 5748 5747 5745 5743 5741 5739 5738 5736 5734 5733 5732 5731 5730 5728 5728 5727 5724 5723 5723 5722 5721 5721 5721 5721 5722 5722 5722 5723 5724 5724 5724 5724 5724 5726 5727 5729 5730 5731 5733 5734 5735 5736 5737 5738 5740 5741 5741 5742 5743 5744 5745 5747 5747 5748 5748 5749 5750 5750 5751 5751 5752 5752 5753 5753 5753 5754 5754 5754 5753 5753
5780 5780 5779 5778 5776 5775 5774 5772 5771 5770 5768 5766 5764 5762 5760 5758 5756 5754 5752 5751 5749 5747 5746 5744 5743 5741 5740 5739 5737 5737 5736 5734 5733 5732 5731 5730 5729 5728 5728 5728 5728 5728 5728 5728 5729 5729 5730 5730 5730 5730 5730 5731 5733 5734 5735 5736 5737 5738 5739 5740 5741 5742 5743 5744 5745 5745 5746 5747 5748 5749 5750 5750 5750 5751 5751 5752 5752 5753 5753 5754 5754 5754 5754 5754 5754 5753 5753 5752
5782 5781 5780 5779 5778 5777 5776 5774 5773 5772 5770 5769 5767 5765 5763 5761 5759 5758 5756 5755 5753 5752 5750 5749 5747 5746 5745 5744 5743 5742 5741 5739 5738 5737 5736 5735 5734 5734 5734 5733 5734 5734 5734 5734 5734 5734 5734 5734 5736 5736 5736 5736 5737 5738 5739 5740 5741 5742 5742 5743 5744 5745 5746 5747 5748 5748 5749 5750 5750 5751 5752 5752 5752 5752 5753 5753 5754 5754 5754 5755 5755 5754 5754 5754 5753 5753 5752 5751
5783 5782 5781 5780 5779 5778 5777 5776 5775 5774 5772 5771 5769 5768 5766 5765 5763 5761 5760 5759 5757 5756 5754 5753 5752 5751 5749 5748 5748 5747 5746 5745 5743 5742 5741 5741 5740 5739 5739 5739 5739 5739 5739 5739 5739 5739 5739 5739 5740 5741 5741 5741 5741 5742 5743 5744 5744 5745 5746 5747 5747 5748 5749 5749 5750 5751 5751 5752 5752 5753 5753 5753 5754 5754 5754 5755 5755 5755 5755 5755 5755 5754 5754 5753 5753 5752 5751 5750
5783 5783 5782 5781 5780 5779 5778 5778 5777 5776 5774 5773 5772 5770 5769 5768 5766 5765 5763 5762 5761 5759 5758 5757 5756 5755 5754 5753 5752 5751 5750 5749 5748 5747 5747 5746 5745 5744 5744 5744 5744 5744 5744 5743 5743 5744 5744 5744 5744 5745 5745 5745 5745 5746 5747 5747 5748 5748 5749 5750 5750 5751 5751 5752 5752 5753 5753 5753 5754 5754 5755 5755 5755 5755 5755 5755 5755 5755 5755 5755 5754 5754 5753 5752 5752 5751 5750 5749
5784 5783 5782 5782 5781 5780 5779 5779 5778 5777 5776 5775 5774 5772 5771 5770 5769 5767 5766 5765 5764 5763 5762 5761 5759 5759 5758 5757 5756 5755 5754 5754 5753 5752 5751 5751 5750 5749 5749 5749 5749 5748 5748 5748 5748 5748 5748 5748 5748 5748 5749 5749 5749 5750 5750 5751 5751 5751 5752 5752 5753 5753 5753 5754 5754 5754 5755 5755 5755 5755 5755 5755 5755 5755 5755 5755 5755 5755 5754 5754 5753 5752 5752 5751 5750 5749 5748 5747
5784 5783 5783 5782 5782 5781 5780 5779 5779 5778 5777 5776 5775 5774 5773 5772 5771 5770 5769 5767 5766 5765 5764 5764 5763 5762 5761 5760 5760 5759 5758 5757 5757 5756 5755 5755 5754 5754 5753 5753 5753 5753 5753 5752 5752 5752 5752 5752 5752 5752 5753 5753 5753 5753 5753 5754 5754 5754 5754 5754 5755 5755 5755 5755 5755 5756 5756 5756 5756 5756 5756 5755 5755 5755 5755 5754 5754 5754 5753 5753 5752 5751 5750 5749 5748 5747 5746 5745
5784 5783 5783 5782 5782 5781 5781 5780 5780 5779 5778 5777 5776 5775 5774 5773 5773 5772 5771 5770 5769 5768 5767 5766 5765 5765 5764 5763 5763 5762 5761 5761 5760 5759 5759 5758 5758 5757 5757 5757 5756 5756 5756 5756 5756 5756 5756 5756 5756 5756 5756 5756 5756 5756 5756 5756 5756 5756 5756 5756 5756 5757 5756 5757 5757 5757 5757 5756 5756 5756 5756 5755 5755 5754 5754 5753 5753 5753 5752 5752 5751 5749 5748 5747 5746 5745 5744 5742
5784 5783 5782 5782 5781 5781 5781 5780 5780 5779 5779 5778 5777 5776 5776 5775 5774 5773 5772 5771 5771 5770 5769 5768 5768 5767 5766 5766 5765 5764 5764 5763 5763 5762 5762 5761 5761 5760 5760 5760 5759 5759 5759 5759 5759 5759 5759 5759 5758 5758 5758 5758 5758 5758 5758 5758 5758 5758 5758 5758 5758 5758 5758 5758 5758 5757 5757 5757 5756 5756 5755 5755 5754 5754 5753 5753 5752 5752 5751 5751 5749 5748 5747 5746 5744 5743 5742 5740
5783 5783 5782 5782 5781 5781 5781 5780 5780 5780 5779 5779 5778 5777 5776 5776 5775 5774 5773 5773 5772 5771 5771 5770 5769 5769 5768 5767 5767 5766 5766 5765 5765 5764 5764 5764 5763 5763 5763 5762 5762 5762 5762 5761 5761 5761 5761 5761 5761 5761 5760 5760 5760 5760 5760 5760 5759 5759 5759 5759 5759 5759 5758 5758 5758 5758 5757 5757 5756 5756 5755 5755 5754 5753 5753 5752 5751 5750 5750 5750 5748 5747 5746 5744 5743 5741 5740 5738
5782 5782 5782 5782 5781 5781 5780 5780 5780 5779 5779 5779 5778 5778 5777 5777 5776 5775 5774 5774 5773 5773 5772 5771 5771 5770 5770 5769 5769 5768 5767 5767 5766 5766 5766 5765 5765 5765 5765 5764 5764 5764 5764 5763 5763 5763 5762 5762 5762 5762 5762 5762 5761 5761 5761 5761 5761 5760 5760 5760 5759 5759 5759 5758 5758 5758 5757 5757 5756 5756 5755 5754 5753 5753 5752 5751 5750 5749 5748 5748 5746 5745 5743 5742 5741 5739 5737 5736